This demonstration page uses our WeatherBlox Daily Observations layout. Learn more.

Left ArrowRight Arrow

Hourly Observations for February 20, 2022

Temp ( °F °C ) Dew Point ( °F °C ) Humidity (%) Winds ( mph kmh ) Pressure ( in mb ) Visibility ( mi km ) Precip ( " mm )
12:56 am 00:56 Clear 26 -3.3 11 -11.8 52 52 SSE 7 11 29.92 1013 10 16 0.00 0.00
1:56 am 01:56 Clear 27 -3 14 -10.1 58 58 SE 5 7 29.88 1012 10 16 0.00 0.00
2:56 am 02:56 Clear 27 -3 16 -9.1 63 63 SE 3 6 29.83 1010 10 16 0.00 0.00
3:56 am 03:56 Clear 30 -1.1 20 -6.8 66 66 ESE 3 6 29.80 1009 10 16 0.00 0.00
4:56 am 04:56 Clear 33 0.3 22 -5.5 65 65 E 7 11 29.79 1009 10 16 0.00 0.00
5:56 am 05:56 Clear 36 2.2 23 -5.2 58 58 ESE 6 9 29.79 1009 10 16 0.00 0.00
6:56 am 06:56 Clear 42 5.8 24 -4.7 47 47 SSW 9 15 29.77 1008 10 16 0.00 0.00
7:56 am 07:56 Sunny 43 6.1 24 -4.7 46 46 SSW 7 11 29.78 1009 10 16 0.00 0.00
8:56 am 08:56 undefined 47 8.1 24 -4.4 41 41 SSW 12 19 29.80 1009 10 16 0.00 0.00
9:56 am 09:56 Sunny 51 10.7 24 -4.5 34 34 WSW 12 19 29.81 1010 10 16 0.00 0.00
10:56 am 10:56 Sunny 56 13.4 23 -4.8 28 28 W 7 11 29.81 1010 10 16 0.00 0.00
11:56 am 11:56 undefined 58 14.3 24 -4.5 27 27 SW 5 7 29.83 1010 10 16 0.00 0.00
12:56 pm 12:56 Sunny 60 15.7 24 -4.3 25 25 Calm 29.81 1009 10 16 0.00 0.00
1:56 pm 13:56 undefined 62 16.7 25 -4 24 24 Calm 29.80 1009 10 16 0.00 0.00
2:56 pm 14:56 Mostly Sunny 63 17.4 24 -4.6 22 22 WSW 3 6 29.80 1009 10 16 0.00 0.00
3:56 pm 15:56 Partly Cloudy 63 17.1 24 -4.2 23 23 Calm 29.79 1009 10 16 0.00 0.00
4:56 pm 16:56 Mostly Cloudy 62 16.6 24 -4.6 23 23 Calm 29.79 1009 10 16 0.00 0.00
5:56 pm 17:56 Mostly Cloudy 58 14.6 25 -3.7 28 28 Calm 29.80 1009 10 16 0.00 0.00
6:56 pm 18:56 Mostly Cloudy 50 9.8 26 -3.5 39 39 Calm 29.83 1010 10 16 0.00 0.00
7:56 pm 19:56 Partly Cloudy 46 7.7 25 -4.1 43 43 Calm 29.84 1010 10 16 0.00 0.00
8:56 pm 20:56 Mostly Cloudy 41 4.8 26 -3.5 55 55 SE 5 7 29.85 1011 10 16 0.00 0.00
9:56 pm 21:56 Clear 46 7.8 24 -4.6 41 41 Calm 29.84 1011 10 16 0.00 0.00
10:56 pm 22:56 Clear 43 6 25 -3.9 49 49 ESE 3 6 29.84 1011 10 16 0.00 0.00
11:56 pm 23:56 Mostly Cloudy 42 5.4 26 -3.4 53 53 ENE 3 6 29.83 1010 10 16 0.00 0.00

Powered by AerisWeather